Flag Weather past 2 weeks in Guadalajara, Jalisco, Mexico

Now
52 °F

Clear.


Feels Like: 52 °F
Forecast: 53 / 77 °F
Wind: No wind

Location: Don Miguel / Guadalaj

Current Time: Oct 31, 2014 at 4:07:26 AM

Latest Report: Oct 31, 2014 at 2:51 AM


Visibility: 8 mi

Pressure: 29.91 "Hg

Humidity: 82%

Dew point: 46 °F

Location of GuadalajaraLocation

Historic Weather in Guadalajara — Graph

°F

Guadalajara temperature yesterday

Maximum temperature yesterday: 81 °F (at 2:48 PM)
Minimum temperature yesterday: 55 °F (at 2:51 AM)
Average temperature yesterday: 66 °F

Past Weeks' High & Low Weather Summary

 TemperatureHumidityPressure
High82 °F (Oct 16, 3:47 PM)94% (Oct 16, 4:49 AM)30.34 "Hg (Oct 16, 4:49 AM)
Low46 °F (Oct 27, 5:51 AM)17% (Oct 17, 5:49 PM)29.62 "Hg (Oct 21, 3:51 PM)
Average67 °F65%30.04 "Hg
* Reported Oct 16 3:52 AM — Oct 31 2:51 AM, Guadalajara, Weather by CustomWeather, © 2014

Note: Actual official high and low records may vary slightly from our data, if they occured in-between our weather recording intervals... More about our weather records

Advertising

Guadalajara weather history for previous 24 hours

 ConditionsComfort  
Time TempWeatherWind HumidityBarometerVisibility
2:51 AM
Oct 31
52 °FClear.No wind82%29.91 "Hg8 mi
1:48 AM54 °FClear.No wind77%30.20 "Hg8 mi
12:47 AM54 °FClear.No wind77%30.20 "Hg8 mi
11:49 PM
Oct 30
57 °FClear.6 mph72%29.92 "Hg8 mi
10:46 PM55 °FClear.No wind72%30.18 "Hg10 mi
9:47 PM57 °FClear.No wind72%30.16 "Hg10 mi
7:53 PM66 °FClear.5 mph49%30.12 "Hg10 mi
4:46 PM81 °FSunny.3 mph20%30.08 "Hg10 mi
3:46 PM81 °FSunny.6 mph20%30.09 "Hg10 mi
2:48 PM81 °FSunny.No wind21%29.81 "Hg10 mi
1:48 PM79 °FSunny.6 mph30%30.14 "Hg8 mi
12:50 PM77 °FSunny.9 mph36%30.19 "Hg6 mi
11:50 AM73 °FSunny.5 mph41%29.93 "Hg5 mi
10:50 AM72 °FPassing clouds.5 mph41%30.15 "Hg5 mi
9:48 AM68 °FScattered clouds.3 mph46%30.26 "Hg3 mi
8:51 AM63 °FScattered clouds.6 mph56%30.02 "Hg3 mi
7:52 AM55 °FScattered clouds.No wind82%30.24 "Hg3 mi
6:47 AM57 °FPassing clouds.3 mph82%30.21 "Hg6 mi
5:45 AM55 °FPassing clouds.5 mph82%29.91 "Hg8 mi
4:55 AM55 °FPassing clouds.6 mph88%30.19 "Hg7 mi
Weather by CustomWeather, © 2014

See weather overviewHow to use our weather pages